Home   Weather   Paris Island   Past weeks
Flag for USA

Past Weather in Paris Island, Georgia, USA — Yesterday and Last 2 Weeks

Now
72 °F

Heavy rain. Fog.


Feels Like: 68 °F
Forecast: 79 / 72 °F
Wind: 3 mph from Southeast

Location: Anderson County Airport

Current Time: Jul 6, 2020 at 8:37:05 pm

Latest Report: Jul 6, 2020 at 7:56 pm


Visibility: 4 mi

Pressure: 30.03 "Hg

Humidity: 93%

Dew Point: 70 °F

Location of Paris IslandLocation

Past Weather in Paris Island — Graph

°F

Paris Island Temperature Yesterday

Maximum temperature yesterday: 92 °F (at 4:56 pm)
Minimum temperature yesterday: 71 °F (at 5:56 am)
Average temperature yesterday: 82 °F

High & Low Weather Summary for the Past Weeks

 TemperatureHumidityPressure
High93 °F (Jul 2, 3:56 pm)97% (Jun 23, 4:10 am)30.20 "Hg (Jun 23, 4:10 am)
Low67 °F (Jun 22, 4:56 am)36% (Jul 2, 3:56 pm)29.80 "Hg (Jun 23, 6:56 pm)
Average78 °F74%29.96 "Hg
* Reported Jun 21 7:56 pm — Jul 6 7:12 pm, Paris Island. Weather by CustomWeather, © 2020

Note: Actual official high and low records may vary slightly from our data, if they occured in-between our weather recording intervals... More about our weather records

Paris Island Weather History for the Previous 24 Hours

Scroll right to see more
 ConditionsComfort  
Time TempWeatherWind HumidityBarometerVisibility
7:12 pm
Mon, Jul 6
72 °FHeavy rain. Fog.8 mph93%30.06 "Hg3 mi
6:56 pm72 °FStrong thunderstorms. Fog.12 mph97%30.04 "Hg1 mi
6:37 pm74 °FThunderstorms. Mostly cloudy.9 mph91%30.06 "Hg7 mi
5:56 pm81 °FPassing clouds.10 mph74%30.00 "Hg10 mi
4:56 pm84 °FPassing clouds.12 mph67%29.99 "Hg10 mi
4:36 pm83 °FPartly sunny.9 mph70%30.01 "Hg10 mi
3:56 pm84 °FOvercast.3 mph61%30.00 "Hg10 mi
2:56 pm82 °FOvercast.8 mph67%30.00 "Hg10 mi
1:56 pm83 °FCloudy.10 mph65%30.01 "Hg10 mi
12:56 pm82 °FScattered clouds.12 mph65%30.03 "Hg10 mi
12:28 pm83 °FBroken clouds.9 mph65%30.07 "Hg10 mi
12:04 pm82 °FBroken clouds.9 mph67%30.08 "Hg10 mi
11:29 am80 °FBroken clouds.9 mph74%30.08 "Hg10 mi
11:15 am79 °FLight rain. Mostly cloudy.8 mph74%30.08 "Hg10 mi
10:56 am80 °FCloudy.8 mph74%30.05 "Hg10 mi
10:11 am79 °FBroken clouds.8 mph74%30.07 "Hg10 mi
9:56 am79 °FBroken clouds.10 mph74%30.03 "Hg10 mi
8:56 am75 °FPartly sunny.9 mph82%30.03 "Hg10 mi
8:23 am76 °FPassing clouds.6 mph82%30.06 "Hg10 mi
7:56 am74 °FPartly sunny.6 mph85%30.02 "Hg10 mi
7:37 am72 °FOvercast.6 mph87%30.05 "Hg10 mi
7:13 am71 °FPartly sunny.6 mph87%30.04 "Hg10 mi
6:56 am71 °FSunny.5 mph87%30.00 "Hg10 mi
5:56 am71 °FPassing clouds.3 mph87%29.99 "Hg10 mi
4:56 am72 °FClear.3 mph81%29.97 "Hg10 mi
3:56 am72 °FClear.6 mph84%29.96 "Hg10 mi
2:56 am73 °FClear.6 mph79%29.96 "Hg10 mi
1:56 am74 °FClear.5 mph76%29.98 "Hg10 mi
12:56 am76 °FClear.6 mph72%29.99 "Hg10 mi
11:56 pm
Sun, Jul 5
78 °FClear.6 mph62%29.98 "Hg10 mi
10:56 pm77 °FClear.5 mph69%29.96 "Hg10 mi
9:56 pm81 °FClear.5 mph58%29.95 "Hg10 mi
8:56 pm83 °FClear.3 mph55%29.93 "Hg10 mi
Weather by CustomWeather, © 2020

See weather overview